JCSAT-4A

Last updated on Jan. 21, 2021, 6:16 a.m. UTC

1 25630U 99006A   21020.57896522 -.00000305  00000-0  00000+0 0  9997
2 25630   5.0786  72.6083 0010207 200.5301 191.4545  1.00271177 80217
UTC
Height (km)
Latitude
Longitude
Inclination
Orbital Period
UTC large
Height (km)
Speed (km/s)
/
Latitude / Longitude
Inclination (degrees)
Orbital Period (minutes)
Azimuth
Elevation
Range (km)
Doppler Factor
iOS Compass Heading
iOS Angle

Next 30 passes for location: Hong Kong

Rise time Rise Azimuth (degrees) Set time Set Azimuth (degrees) Duration Max altitude (degrees)

No matching passes for this satellites